This is the latest recevied weather packets stored in our database for station/object KB4MOX. If no packets are shown the sender has not sent any weather packets the latest 10 day(s).
| Time | Temp. | Humidity | Pressure | Rain* | Wind** | Luminosity | Snow |
|---|---|---|---|---|---|---|---|
| 1787413197 | 28.33° C | 76% | 1016.5 hPa | 0 mm | - | 632 W/m² | - |
| 1787412893 | 28.33° C | 78% | 1016.5 hPa | 0 mm | - | 190 W/m² | - |
| 1787412588 | 27.78° C | 78% | 1016.6 hPa | 0 mm | - | 367 W/m² | - |
| 1787412283 | 27.78° C | 77% | 1016.9 hPa | 0 mm | - | 222 W/m² | - |
| 1787411979 | 27.78° C | 79% | 1016.8 hPa | 0 mm | - | 293 W/m² | - |
| 1787411676 | 27.22° C | 80% | 1016.7 hPa | 0 mm | - | 199 W/m² | - |
| 1787411371 | 27.22° C | 80% | 1016.8 hPa | 0 mm | - | 151 W/m² | - |
| 1787411067 | 27.22° C | 80% | 1016.6 hPa | 0 mm | - | 124 W/m² | - |
| 1787410762 | 27.22° C | 80% | 1016.6 hPa | 0 mm | - | 141 W/m² | - |
| 1787410458 | 26.67° C | 83% | 1016.7 hPa | 0 mm | - | 205 W/m² | - |
| 1787410153 | 26.11° C | 83% | 1016.6 hPa | 0 mm | - | 108 W/m² | - |
| 1787409849 | 26.11° C | 84% | 1016.7 hPa | 0 mm | - | 107 W/m² | - |
| 1787409545 | 26.11° C | 84% | 1016.6 hPa | 0 mm | - | 110 W/m² | - |
| 1787409241 | 25.56° C | 84% | 1016.8 hPa | 0 mm | - | 103 W/m² | - |
| 1787408936 | 25.56° C | 85% | 1016.7 hPa | 0 mm | - | 152 W/m² | - |
| 1787408632 | 25.56° C | 84% | 1016.6 hPa | 0 mm | - | 117 W/m² | - |
| 1787408326 | 25.56° C | 85% | 1016.6 hPa | 0 mm | - | 129 W/m² | - |
| 1787408023 | 25.56° C | 86% | 1016.7 hPa | 0 mm | - | 105 W/m² | - |
| 1787407718 | 25.56° C | 85% | 1016.9 hPa | 0 mm | - | 134 W/m² | - |
| 1787407413 | 25° C | 87% | 1017 hPa | 0 mm | - | 139 W/m² | - |
| 1787407109 | 25° C | 87% | 1016.9 hPa | 0 mm | - | 169 W/m² | - |
| 1787406804 | 25° C | 87% | 1016.9 hPa | 0 mm | - | 101 W/m² | - |
| 1787406499 | 25° C | 88% | 1017 hPa | 0 mm | - | 239 W/m² | - |
| 1787406196 | 24.44° C | 89% | 1017 hPa | 0 mm | - | 113 W/m² | - |
| 1787405891 | 24.44° C | 88% | 1016.8 hPa | 0 mm | - | 100 W/m² | - |
* Rain latest hour (hover to see other rain measurements)
** Current wind speed in m/s (hover to see current wind gust speed)